Location: McCloud Nature Park
(39.8272°N, 86.6824°W)
Time: 11:00:29
(UTC-05:00)

Amateur Radio Satellites - All Passes

Search period start: 25 April 2015 10:30
Search period end: 26 April 2015 10:30
Location: McCloud Nature Park, 39.8272°N, 86.6824°W

Satellite Date Start Highest point End Downlink Frequencies (MHz)
Time Altitude Azimuth
BEESAT 3 25 Apr 10:34:35 10:36:49 14° 42° (NE) 10:39:09 437.485
BEESAT 2 25 Apr 10:35:40 10:37:30 13° 40° (NE) 10:39:27 435.950
UWE-3 25 Apr 10:36:52 10:41:34 72° 101° (E) 10:46:15 435.000/436.395/437.385
50 SAT 25 Apr 10:38:01 10:40:20 15° 91° (E) 10:42:47 437.505
BUGSAT 1 25 Apr 10:42:58 10:46:31 31° 71° (ENE) 10:50:07 437.445
POLYITAN 1 25 Apr 10:44:43 10:48:48 51° 73° (ENE) 10:52:57 437.675
DUCHIFAT 1 25 Apr 10:46:20 10:50:23 51° 74° (ENE) 10:54:30 145.980
FUNcube-1 25 Apr 10:47:43 10:52:21 74° 101° (ESE) 10:56:54 145.935
ANTELSAT 25 Apr 10:50:36 10:55:06 66° 260° (W) 10:59:43 437.575/2403.000
UKube-1 25 Apr 10:54:07 10:58:18 46° 99° (E) 11:02:29 .
DOVE 4 25 Apr 10:57:34 11:01:17 20° 293° (WNW) 11:04:56 437.250
COMPASS 1 25 Apr 11:03:19 11:06:01 16° 293° (WNW) 11:08:32 437.405
QB50P1 25 Apr 11:03:22 11:07:34 85° 77° (ENE) 11:11:49 145.935-145.965
HO-68 25 Apr 11:06:55 11:12:56 29° 298° (WNW) 11:18:46 435.675
HUMSAT D 25 Apr 11:11:46 11:16:06 66° 101° (E) 11:20:23 437.325/437.525
ZACube-1 25 Apr 11:13:00 11:17:34 58° 285° (WNW) 11:22:04 437.345
Oscar 11 25 Apr 11:13:58 11:17:48 30° 289° (WNW) 11:21:34 145.826/435.025
VELOX 1 25 Apr 11:15:48 11:19:57 39° 98° (E) 11:24:08 145.980
YUBILEINY 25 Apr 11:21:09 11:30:00 86° 277° (W) 11:38:53 435.215
CUBEBUG 1 25 Apr 11:22:57 11:26:20 22° 94° (E) 11:29:49 437.445
DELFI C3 25 Apr 11:23:40 11:27:09 28° 289° (WNW) 11:30:35 145.870
QB50P2 25 Apr 11:29:31 11:33:35 46° 261° (W) 11:37:41 145.880/145.840
AIST 2 25 Apr 11:32:55 11:35:32 16° 43° (NE) 11:38:13 435.215
SO-50 25 Apr 11:33:16 11:37:45 52° 117° (ESE) 11:42:26 436.795
AISAT 25 Apr 11:33:19 11:37:45 64° 101° (E) 11:42:12 437.250
TIGRISAT 25 Apr 11:42:37 11:45:56 19° 268° (W) 11:49:12 435.000
CINEMA 3 25 Apr 11:46:27 11:48:38 12° 296° (WNW) 11:50:33 145.822/145.860
DX 1 25 Apr 11:46:32 11:50:40 42° 288° (WNW) 11:54:45 434.975-435.025
UNISAT 6 25 Apr 11:47:04 11:50:08 17° 269° (W) 11:53:05 437.425
CUBEBUG 2 25 Apr 11:47:18 11:50:44 19° 293° (WNW) 11:54:01 437.445
NANOSAT C BR1 25 Apr 11:48:27 11:52:08 29° 264° (W) 11:55:49 145.865
POPSAT HIP 1 25 Apr 11:51:33 11:55:11 27° 265° (W) 11:58:46 437.405
AIST 1 25 Apr 12:02:28 12:06:45 82° 82° (E) 12:11:01
ESTCUBE 1 25 Apr 12:10:48 12:15:19 87° 102° (ESE) 12:19:48 437.505/2401.250
BEESAT 3 25 Apr 12:11:14 12:15:18 66° 241° (WSW) 12:19:18 437.485
50 SAT 25 Apr 12:11:35 12:15:22 39° 287° (WNW) 12:19:06 437.505
BEESAT 2 25 Apr 12:12:04 12:16:12 79° 240° (WSW) 12:20:15 435.950
UWE-3 25 Apr 12:15:30 12:17:33 12° 296° (WNW) 12:19:23 435.000/436.395/437.385
Cosmos 2491 25 Apr 12:16:02 12:21:50 19° 280° (W) 12:27:09 435.465 / 435.565
TISAT 1 25 Apr 12:16:23 12:19:12 18° 92° (E) 12:22:09 437.305
Cosmos 2504 25 Apr 12:18:05 12:24:18 23° 82° (E) 12:30:53 435.465 / 435.565
BUGSAT 1 25 Apr 12:19:14 12:22:06 18° 267° (W) 12:24:52 437.445
ISS 25 Apr 12:22:46 12:26:01 82° 326° (NW) 12:29:17 145.825
POLYITAN 1 25 Apr 12:23:09 12:25:06 13° 271° (W) 12:26:50 437.675
DUCHIFAT 1 25 Apr 12:24:42 12:26:36 12° 271° (W) 12:28:17 145.980
FUNcube-1 25 Apr 12:26:23 12:28:07 12° 296° (WNW) 12:29:36 145.935
UKube-1 25 Apr 12:31:24 12:34:07 16° 294° (WNW) 12:36:39 .
SPROUT 25 Apr 12:44:28 12:48:39 47° 99° (E) 12:52:51 437.525
HUMSAT D 25 Apr 12:49:43 12:51:21 12° 296° (WNW) 12:52:45 437.325/437.525
VELOX 1 25 Apr 12:53:04 12:56:17 19° 293° (WNW) 12:59:21 145.980
CUBEBUG 1 25 Apr 12:58:53 13:02:45 31° 289° (WNW) 13:06:34 437.445
AIST 2 25 Apr 13:10:21 13:14:33 60° 242° (WSW) 13:18:38 435.215
AISAT 25 Apr 13:11:53 13:13:53 13° 296° (WNW) 13:15:41 437.250
SO-50 25 Apr 13:15:00 13:18:40 21° 317° (NW) 13:22:20 436.795
Oscar 19 25 Apr 13:15:12 13:20:17 67° 74° (ENE) 13:25:27 437.125/150
YUBILEINY 25 Apr 13:22:41 13:28:25 17° 300° (WNW) 13:33:39 435.215
RS-15 25 Apr 13:31:24 13:40:45 37° 108° (ESE) 13:50:28 29.354- 29.394
ITUPSAT 1 25 Apr 13:47:16 13:51:17 27° 95° (E) 13:55:20 437.325
ITAMSAT 1 25 Apr 13:49:27 13:54:19 44° 71° (ENE) 13:59:14 435.822/435.867
TISAT 1 25 Apr 13:51:12 13:55:09 37° 288° (WNW) 13:59:04 437.305
ISS 25 Apr 14:00:35 14:02:48 17° 341° (NNW) 14:05:01 145.825
JAS-2 25 Apr 14:01:56 14:05:23 14° 57° (ENE) 14:09:12 435.910
Cosmos 2504 25 Apr 14:08:05 14:16:59 76° 280° (W) 14:25:47 435.465 / 435.565
AO-7 25 Apr 14:14:05 14:19:57 23° 55° (NE) 14:26:06 29.400- 29.500
Gurwin Techsat 1B 25 Apr 14:17:06 14:22:22 69° 75° (ENE) 14:27:40 435.225
BEESAT 25 Apr 14:17:49 14:22:32 58° 101° (E) 14:27:13 436.000
SWISSCUBE 25 Apr 14:20:16 14:25:01 67° 101° (E) 14:29:45 437.505
SPROUT 25 Apr 14:21:48 14:24:24 15° 294° (WNW) 14:26:50 437.525
Oscar 19 25 Apr 14:57:31 15:00:14 14° 272° (W) 15:02:40 437.125/150
STARS 25 Apr 15:13:14 15:16:53 25° 95° (E) 15:20:36 437.465
ITUPSAT 1 25 Apr 15:25:00 15:29:11 30° 291° (WNW) 15:33:17 437.325
ITAMSAT 1 25 Apr 15:30:03 15:34:04 22° 267° (W) 15:37:55 435.822/435.867
HORYU 2 25 Apr 15:35:51 15:40:21 86° 74° (ENE) 15:44:52 437.375
ISS 25 Apr 15:39:29 15:40:13 11° 1° (N) 15:40:57 145.825
JAS-2 25 Apr 15:41:33 15:49:19 67° 72° (ENE) 15:56:53 435.910
RS-15 25 Apr 15:41:49 15:52:36 62° 309° (NW) 16:03:37 29.354- 29.394
GONETS M04 25 Apr 15:45:20 15:52:40 33° 85° (E) 16:00:16
PCSat 25 Apr 15:51:33 15:53:17 12° 37° (NE) 15:55:14 145.827
KKS-1 25 Apr 15:53:53 15:58:23 73° 285° (WNW) 16:02:51 437.445
BEESAT 25 Apr 15:57:06 15:59:57 15° 296° (WNW) 16:02:37 436.000
SWISSCUBE 25 Apr 15:59:59 16:02:23 14° 297° (WNW) 16:04:34 437.505
Gurwin Techsat 1B 25 Apr 16:00:05 16:02:58 14° 272° (W) 16:05:32 435.225
AO-7 25 Apr 16:03:37 16:11:55 83° 253° (WSW) 16:20:16 29.400- 29.500
Cosmos 2504 25 Apr 16:06:59 16:12:08 16° 301° (WNW) 16:16:41 435.465 / 435.565
MOZHAYETS 4 25 Apr 16:20:47 16:23:08 14° 89° (E) 16:25:41
CUSAT 1 25 Apr 16:36:31 16:39:00 18° 85° (E) 16:42:06 437.405
CUTE-I 25 Apr 16:41:18 16:42:53 12° 60° (ENE) 16:44:47 437.470
Cosmos 2499 25 Apr 16:44:55 16:46:42 11° 77° (ENE) 16:49:17 435.465 / 435.565
VERMONT LUNAR 25 Apr 16:48:16 16:51:24 36° 156° (SSE) 16:54:34 437.305
STARS 25 Apr 16:49:28 16:53:20 29° 290° (WNW) 16:57:09 437.465
Cubesat XI-IV 25 Apr 16:49:43 16:52:22 14° 62° (ENE) 16:55:15 437.490
DANDE 25 Apr 17:14:13 17:17:10 32° 91° (E) 17:20:58 436.750
ISS 25 Apr 17:15:10 17:17:35 19° 21° (NNE) 17:20:01 145.825
PHONESAT 2.4 25 Apr 17:15:13 17:18:08 24° 152° (SSE) 17:21:06 2401.200-2431.200
JAS-2 25 Apr 17:28:28 17:34:50 26° 270° (W) 17:40:52 435.910
PCSat 25 Apr 17:32:31 17:37:54 63° 58° (ENE) 17:43:17 145.827
GONETS M04 25 Apr 17:40:38 17:49:10 53° 284° (WNW) 17:57:45
MOZHAYETS 4 25 Apr 17:56:17 18:00:46 53° 286° (WNW) 18:05:11
CUBESAT XI-V 25 Apr 17:57:42 17:59:02 11° 88° (E) 18:00:38 437.345
RS-15 25 Apr 17:59:34 18:07:59 23° 339° (NNW) 18:16:24 29.354- 29.394
AO-7 25 Apr 18:01:26 18:06:07 15° 273° (W) 18:10:11 29.400- 29.500
AUBIESAT-1 25 Apr 18:11:48 18:12:41 11° 92° (E) 18:13:46 437.475
CUTE-I 25 Apr 18:16:57 18:22:16 87° 81° (E) 18:27:38 437.470
CUSAT 1 25 Apr 18:18:17 18:21:26 26° 293° (WNW) 18:25:22 437.405
VERMONT LUNAR 25 Apr 18:25:22 18:28:46 85° 352° (N) 18:32:10 437.305
Cubesat XI-IV 25 Apr 18:26:34 18:31:54 76° 256° (WSW) 18:37:15 437.490
Cosmos 2499 25 Apr 18:29:49 18:38:33 66° 93° (E) 18:47:07 435.465 / 435.565
PRISM 25 Apr 18:32:14 18:34:22 14° 91° (E) 18:36:41 437.425
ISS 25 Apr 18:51:01 18:54:16 76° 220° (SW) 18:57:31 145.825
PHONESAT 2.4 25 Apr 18:52:31 18:56:06 77° 168° (SSE) 18:59:42 2401.200-2431.200
DANDE 25 Apr 18:59:10 19:00:59 13° 300° (WNW) 19:02:48 436.750
M-CUBED/EXP-1 PRIME 25 Apr 19:01:29 19:05:35 52° 104° (ESE) 19:09:20 437.505
PCSat 25 Apr 19:17:22 19:20:52 17° 254° (WSW) 19:24:07 145.827
CUTE 1.7 + AOD 2 25 Apr 19:27:20 19:28:37 11° 65° (ENE) 19:30:07 437.475
CUBESAT XI-V 25 Apr 19:32:26 19:37:01 66° 285° (WNW) 19:41:36 437.345
STRAND 1 25 Apr 19:37:26 19:42:30 60° 101° (ESE) 19:47:31 437.568
AUBIESAT-1 25 Apr 19:43:57 19:48:03 54° 292° (WNW) 19:51:46 437.475
HO-68 25 Apr 19:46:20 19:52:49 39° 65° (ENE) 19:59:25 435.675
GOMX 1 25 Apr 19:48:30 19:51:57 26° 69° (ENE) 19:55:38 467.674
BRITE-PL 25 Apr 20:00:20 20:04:23 55° 74° (ENE) 20:08:34 437.365/2234.400
CUTE-I 25 Apr 20:02:04 20:03:12 10° 274° (W) 20:03:54 437.470
VERMONT LUNAR 25 Apr 20:02:54 20:06:18 89° 5° (N) 20:09:42 437.305
SO-50 25 Apr 20:05:25 20:10:06 41° 51° (NE) 20:14:46 436.795
PRISM 25 Apr 20:06:13 20:10:07 42° 288° (WNW) 20:13:58 437.425
COMPASS 1 25 Apr 20:17:26 20:20:58 27° 70° (ENE) 20:24:36 437.405
RS-15 25 Apr 20:18:10 20:25:56 21° 14° (NNE) 20:34:09 29.354- 29.394
DOVE 4 25 Apr 20:24:24 20:28:23 42° 72° (ENE) 20:32:36 437.250
Cosmos 2499 25 Apr 20:24:57 20:32:24 28° 293° (WNW) 20:39:25 435.465 / 435.565
PHONESAT 2.4 25 Apr 20:30:48 20:34:24 79° 3° (N) 20:38:00 2401.200-2431.200
Oscar 11 25 Apr 20:33:00 20:35:45 17° 67° (ENE) 20:38:40 145.826/435.025
DELFI C3 25 Apr 20:37:11 20:39:00 13° 66° (ENE) 20:41:00 145.870
M-CUBED/EXP-1 PRIME 25 Apr 20:37:43 20:39:58 14° 302° (WNW) 20:42:00 437.505
SEEDS 25 Apr 20:42:11 20:46:24 64° 75° (ENE) 20:50:40 437.485
CANX-2 25 Apr 20:50:35 20:54:53 76° 258° (WSW) 20:59:14 2200.000
AAUSAT CUBESAT 2 25 Apr 20:59:17 21:03:28 70° 77° (ENE) 21:07:42 437.432
CUTE 1.7 + AOD 2 25 Apr 20:59:46 21:04:02 66° 259° (W) 21:08:20 437.475
DX 1 25 Apr 21:07:18 21:09:29 14° 65° (ENE) 21:11:52 434.975-435.025
CUBEBUG 2 25 Apr 21:07:34 21:11:27 33° 71° (ENE) 21:15:31 437.445
CINEMA 3 25 Apr 21:08:10 21:12:27 65° 75° (ENE) 21:16:57 145.822/145.860
STRAND 1 25 Apr 21:18:00 21:21:15 17° 296° (WNW) 21:24:19 437.568
Cosmos 2491 25 Apr 21:24:10 21:29:33 19° 80° (E) 21:35:27 435.465 / 435.565
GOMX 1 25 Apr 21:26:38 21:30:06 25° 267° (W) 21:33:39 467.674
YUBILEINY 25 Apr 21:32:37 21:40:55 46° 74° (ENE) 21:49:13 435.215
UWE-3 25 Apr 21:33:14 21:37:27 51° 73° (ENE) 21:41:50 435.000/436.395/437.385
HO-68 25 Apr 21:33:51 21:40:32 40° 263° (W) 21:47:12 435.675
O/OREOS (USA 219) 25 Apr 21:36:36 21:40:10 23° 103° (ESE) 21:43:52 437.305
VERMONT LUNAR 25 Apr 21:40:33 21:43:37 31° 205° (SSW) 21:46:39 437.305
BRITE-PL 25 Apr 21:42:24 21:43:29 11° 273° (W) 21:44:18 437.365/2234.400
FUNcube-1 25 Apr 21:42:40 21:46:51 51° 74° (ENE) 21:51:12 145.935
SO-50 25 Apr 21:46:24 21:50:28 25° 248° (WSW) 21:54:25 436.795
UKube-1 25 Apr 21:48:21 21:52:17 36° 71° (ENE) 21:56:16 .
COMPASS 1 25 Apr 21:53:07 21:56:38 24° 266° (W) 22:00:06 437.405
HUMSAT D 25 Apr 22:02:50 22:06:47 41° 73° (ENE) 22:10:50 437.325/437.525
DOVE 4 25 Apr 22:03:52 22:06:31 15° 271° (W) 22:09:03 437.250
UNISAT 6 25 Apr 22:04:53 22:05:12 10° 86° (E) 22:05:51 437.425
Oscar 11 25 Apr 22:07:30 22:11:39 42° 262° (W) 22:15:49 145.826/435.025
ZACube-1 25 Apr 22:07:56 22:12:17 81° 260° (W) 22:16:45 437.345
PHONESAT 2.4 25 Apr 22:09:06 22:12:36 50° 200° (SSW) 22:16:04 2401.200-2431.200
DELFI C3 25 Apr 22:09:46 22:13:45 51° 261° (W) 22:17:44 145.870
VELOX 1 25 Apr 22:12:55 22:16:48 32° 70° (ENE) 22:20:44 145.980
CUBEBUG 1 25 Apr 22:19:09 22:22:00 18° 67° (ENE) 22:24:59 437.445
SEEDS 25 Apr 22:21:56 22:22:44 10° 272° (W) 22:23:14 437.485
AISAT 25 Apr 22:30:25 22:34:40 52° 73° (ENE) 22:38:58 437.250
RS-15 25 Apr 22:31:21 22:42:17 48° 45° (NE) 22:53:47 29.354- 29.394
DX 1 25 Apr 22:41:08 22:45:21 52° 260° (W) 22:49:36 434.975-435.025
ANTELSAT 25 Apr 22:43:48 22:47:51 28° 95° (E) 22:51:55 437.575/2403.000
CUBEBUG 2 25 Apr 22:44:52 22:48:16 21° 268° (W) 22:51:38 437.445
CINEMA 3 25 Apr 22:49:18 22:50:18 10° 274° (W) 22:51:01 145.822/145.860
QB50P1 25 Apr 22:50:42 22:53:03 15° 91° (E) 22:55:35 145.935-145.965
50 SAT 25 Apr 22:55:35 22:59:34 77° 258° (WSW) 23:03:38 437.505
TISAT 1 25 Apr 23:09:16 23:11:01 13° 65° (ENE) 23:13:00 437.305
ESTCUBE 1 25 Apr 23:09:30 23:14:00 73° 75° (ENE) 23:18:31 437.505/2401.250
UWE-3 25 Apr 23:12:06 23:14:25 14° 271° (W) 23:16:32 435.000/436.395/437.385
O/OREOS (USA 219) 25 Apr 23:15:19 23:19:28 32° 299° (WNW) 23:23:35 437.305
QB50P2 25 Apr 23:15:46 23:19:30 29° 96° (E) 23:23:16 145.880/145.840
Cosmos 2491 25 Apr 23:16:44 23:25:28 82° 277° (W) 23:34:19 435.465 / 435.565
FUNcube-1 25 Apr 23:21:18 23:23:36 14° 271° (W) 23:25:43 145.935
UKube-1 25 Apr 23:25:27 23:28:35 19° 267° (W) 23:31:35 .
YUBILEINY 25 Apr 23:29:46 23:37:38 38° 273° (W) 23:45:16 435.215
TIGRISAT 25 Apr 23:33:31 23:38:16 87° 286° (WNW) 23:42:55 435.000
NANOSAT C BR1 25 Apr 23:33:32 23:37:39 44° 99° (E) 23:41:46 145.865
POPSAT HIP 1 25 Apr 23:36:45 23:40:56 49° 99° (E) 23:45:07 437.405
UNISAT 6 25 Apr 23:37:55 23:42:39 76° 284° (WNW) 23:47:17 437.425
SPROUT 25 Apr 23:38:05 23:41:54 33° 71° (ENE) 23:45:47 437.525
HUMSAT D 25 Apr 23:40:05 23:42:48 16° 269° (W) 23:45:21 437.325/437.525
PHONESAT 2.4 25 Apr 23:48:38 23:50:22 13° 214° (SW) 23:52:00 2401.200-2431.200
VELOX 1 25 Apr 23:49:59 23:53:26 22° 266° (W) 23:56:48 145.980
CUBEBUG 1 25 Apr 23:54:02 23:58:06 39° 262° (W) 00:02:11 437.445
BUGSAT 1 26 Apr 00:00:34 00:04:42 64° 101° (E) 00:08:51 437.445
Cosmos 2504 26 Apr 00:02:58 00:10:18 38° 72° (ENE) 00:17:16 435.465 / 435.565
POLYITAN 1 26 Apr 00:06:31 00:10:50 73° 284° (WNW) 00:15:08 437.675
DUCHIFAT 1 26 Apr 00:07:20 00:11:37 75° 284° (WNW) 00:15:53 145.980
AISAT 26 Apr 00:09:22 00:11:39 13° 270° (W) 00:13:43 437.250
ANTELSAT 26 Apr 00:20:32 00:24:35 28° 291° (WNW) 00:28:31 437.575/2403.000
QB50P1 26 Apr 00:25:05 00:29:13 45° 287° (WNW) 00:33:18 145.935-145.965
AIST 1 26 Apr 00:31:03 00:35:12 49° 94° (E) 00:39:22
TISAT 1 26 Apr 00:42:18 00:46:24 55° 260° (W) 00:50:32 437.305
RS-15 26 Apr 00:43:52 00:55:06 56° 247° (WSW) 01:06:39 29.354- 29.394
QB50P2 26 Apr 00:51:49 00:55:18 24° 291° (WNW) 00:58:40 145.880/145.840
ITUPSAT 1 26 Apr 00:53:28 00:57:35 30° 69° (ENE) 01:01:45 437.325
NANOSAT C BR1 26 Apr 01:10:29 01:13:11 16° 293° (WNW) 01:15:43 145.865
POPSAT HIP 1 26 Apr 01:13:57 01:16:27 15° 294° (WNW) 01:18:48 437.405
SPROUT 26 Apr 01:14:54 01:18:06 20° 267° (W) 01:21:12 437.525
Cosmos 2491 26 Apr 01:18:42 01:24:03 16° 301° (WNW) 01:28:53 435.465 / 435.565
BEESAT 26 Apr 01:23:27 01:28:09 61° 74° (ENE) 01:32:54 436.000
SWISSCUBE 26 Apr 01:25:58 01:30:44 71° 74° (ENE) 01:35:30 437.505
Oscar 19 26 Apr 01:28:07 01:32:20 25° 94° (E) 01:36:38 437.125/150
BUGSAT 1 26 Apr 01:38:23 01:39:43 11° 295° (WNW) 01:40:50 437.445
Cosmos 2504 26 Apr 01:56:26 02:03:45 40° 272° (W) 02:10:29 435.465 / 435.565
GONETS M04 26 Apr 01:57:13 02:01:35 15° 57° (ENE) 02:06:32
BEESAT 3 26 Apr 02:03:57 02:07:20 26° 114° (ESE) 02:10:49 437.485
ITAMSAT 1 26 Apr 02:04:11 02:07:15 16° 90° (E) 02:10:33 435.822/435.867
BEESAT 2 26 Apr 02:05:54 02:09:06 23° 113° (ESE) 02:12:25 435.950
STARS 26 Apr 02:09:59 02:13:12 21° 67° (ENE) 02:16:32 437.465
AIST 1 26 Apr 02:11:04 02:13:14 13° 291° (WNW) 02:15:11
ITUPSAT 1 26 Apr 02:31:18 02:35:27 28° 265° (W) 02:39:33 437.325
Gurwin Techsat 1B 26 Apr 02:34:32 02:39:04 29° 95° (E) 02:43:41 435.225
KKS-1 26 Apr 02:51:06 02:55:32 88° 258° (WSW) 03:00:01 437.445
BEESAT 26 Apr 03:04:02 03:06:29 13° 271° (W) 03:08:42 436.000
Oscar 19 26 Apr 03:07:01 03:11:49 38° 290° (WNW) 03:16:33 437.125/150
SWISSCUBE 26 Apr 03:07:27 03:09:11 11° 272° (W) 03:10:35 437.505
AIST 2 26 Apr 03:07:38 03:11:26 33° 115° (ESE) 03:15:20 435.215
CUSAT 1 26 Apr 03:10:53 03:17:25 31° 70° (ENE) 03:24:40 437.405
MOZHAYETS 4 26 Apr 03:22:43 03:24:55 14° 65° (ENE) 03:27:21
HORYU 2 26 Apr 03:29:04 03:32:00 17° 92° (E) 03:35:04 437.375
BEESAT 3 26 Apr 03:41:41 03:45:17 28° 310° (NW) 03:48:53 437.485
ITAMSAT 1 26 Apr 03:42:07 03:47:13 58° 288° (WNW) 03:52:17 435.822/435.867
BEESAT 2 26 Apr 03:43:20 03:47:04 32° 309° (NW) 03:50:50 435.950
STARS 26 Apr 03:45:27 03:49:28 35° 263° (W) 03:53:29 437.465
GONETS M04 26 Apr 03:51:27 04:00:20 76° 81° (E) 04:09:10
DANDE 26 Apr 03:51:53 03:59:03 47° 75° (ENE) 04:07:13 436.750
AO-7 26 Apr 04:06:28 04:13:50 35° 97° (E) 04:21:20 29.400- 29.500
Gurwin Techsat 1B 26 Apr 04:14:18 04:19:06 34° 291° (WNW) 04:23:49 435.225
Cosmos 2499 26 Apr 04:24:16 04:29:30 20° 63° (ENE) 04:34:48 435.465 / 435.565
JAS-2 26 Apr 04:38:32 04:44:46 59° 99° (E) 04:50:17 435.910
AIST 2 26 Apr 04:46:31 04:50:06 25° 312° (NW) 04:53:39 435.215
CUSAT 1 26 Apr 04:52:58 05:00:32 60° 265° (W) 05:08:40 437.405
AUBIESAT-1 26 Apr 04:57:00 05:00:15 19° 61° (ENE) 05:03:39 437.475
MOZHAYETS 4 26 Apr 04:57:06 05:01:42 63° 260° (W) 05:06:19
CUBESAT XI-V 26 Apr 05:01:13 05:02:34 11° 64° (ENE) 05:04:10 437.345
HORYU 2 26 Apr 05:04:38 05:08:54 42° 288° (WNW) 05:13:05 437.375
PRISM 26 Apr 05:23:25 05:24:21 11° 64° (ENE) 05:25:29 437.425
DANDE 26 Apr 05:35:17 05:42:16 39° 268° (W) 05:49:54 436.750
M-CUBED/EXP-1 PRIME 26 Apr 05:47:54 05:52:39 66° 70° (ENE) 05:57:28 437.505
GONETS M04 26 Apr 05:49:57 05:56:21 22° 278° (W) 06:02:19
AO-7 26 Apr 05:58:55 06:06:54 52° 295° (WNW) 06:14:50 29.400- 29.500
Cosmos 2499 26 Apr 06:15:58 06:23:44 74° 265° (W) 06:30:56 435.465 / 435.565
JAS-2 26 Apr 06:24:39 06:29:17 21° 299° (WNW) 06:33:23 435.910
AUBIESAT-1 26 Apr 06:30:00 06:34:40 53° 256° (WSW) 06:39:22 437.475
CUBESAT XI-V 26 Apr 06:34:50 06:39:28 75° 258° (WSW) 06:44:06 437.345
CUTE-I 26 Apr 06:35:05 06:39:58 37° 97° (E) 06:44:53 437.470
CUSAT 1 26 Apr 06:40:39 06:42:20 10° 279° (W) 06:43:18 437.405
Cubesat XI-IV 26 Apr 06:44:44 06:49:49 46° 99° (E) 06:54:56 437.490
STRAND 1 26 Apr 06:52:31 06:57:37 80° 74° (ENE) 07:02:45 437.568
PRISM 26 Apr 06:55:11 06:59:20 66° 258° (WSW) 07:03:29 437.425
M-CUBED/EXP-1 PRIME 26 Apr 07:25:21 07:27:58 14° 267° (W) 07:30:20 437.505
O/OREOS (USA 219) 26 Apr 07:46:29 07:50:42 39° 63° (ENE) 07:54:54 437.305
GOMX 1 26 Apr 07:52:50 07:53:27 10° 86° (E) 07:54:29 467.674
AO-7 26 Apr 07:55:37 07:57:58 11° 315° (NW) 07:59:49 29.400- 29.500
BRITE-PL 26 Apr 08:05:09 08:09:09 23° 93° (E) 08:13:29 437.365/2234.400
PCSat 26 Apr 08:13:11 08:18:32 69° 116° (ESE) 08:23:57 145.827
Cosmos 2499 26 Apr 08:13:50 08:15:30 10° 283° (WNW) 08:16:31 435.465 / 435.565
CUTE-I 26 Apr 08:15:26 08:19:56 28° 293° (WNW) 08:24:19 437.470
DOVE 4 26 Apr 08:24:45 08:27:38 15° 89° (E) 08:30:50 437.250
Cubesat XI-IV 26 Apr 08:25:32 08:29:40 23° 294° (WNW) 08:33:40 437.490
SEEDS 26 Apr 08:29:52 08:31:00 11° 88° (E) 08:32:25 437.485
STRAND 1 26 Apr 08:36:00 08:37:32 11° 273° (W) 08:38:44 437.568
CANX-2 26 Apr 08:37:39 08:40:43 19° 92° (E) 08:43:52 2200.000
AAUSAT CUBESAT 2 26 Apr 08:45:25 08:46:45 11° 88° (E) 08:48:18 437.432
CUTE 1.7 + AOD 2 26 Apr 08:46:31 08:49:49 22° 93° (E) 08:53:11 437.475
HO-68 26 Apr 09:01:49 09:08:32 42° 98° (E) 09:15:18 435.675
CINEMA 3 26 Apr 09:04:25 09:07:53 19° 91° (E) 09:11:32 145.822/145.860
UWE-3 26 Apr 09:25:54 09:27:41 12° 88° (E) 09:29:45 435.000/436.395/437.385
O/OREOS (USA 219) 26 Apr 09:26:42 09:29:51 18° 258° (WSW) 09:32:50 437.305
GOMX 1 26 Apr 09:27:03 09:32:15 90° 7° (N) 09:37:42 467.674
Cosmos 2491 26 Apr 09:28:10 09:36:38 49° 75° (ENE) 09:45:09 435.465 / 435.565
FUNcube-1 26 Apr 09:34:15 09:35:32 11° 87° (E) 09:37:07 145.935
COMPASS 1 26 Apr 09:36:34 09:40:42 55° 99° (E) 09:44:48 437.405
ANTELSAT 26 Apr 09:42:24 09:45:58 24° 68° (ENE) 09:49:43 437.575/2403.000
BRITE-PL 26 Apr 09:42:57 09:47:49 44° 287° (WNW) 09:52:57 437.365/2234.400
QB50P1 26 Apr 09:44:40 09:45:35 11° 64° (ENE) 09:46:44 145.935-145.965
DELFI C3 26 Apr 09:50:36 09:53:43 22° 94° (E) 09:56:53 145.870
Oscar 11 26 Apr 09:55:36 09:59:34 35° 97° (E) 10:03:33 145.826/435.025
ZACube-1 26 Apr 09:58:04 10:01:36 22° 93° (E) 10:05:11 437.345
PCSat 26 Apr 09:58:36 10:02:32 20° 315° (NW) 10:06:22 145.827
DOVE 4 26 Apr 10:00:44 10:05:49 63° 286° (WNW) 10:11:03 437.250
SEEDS 26 Apr 10:03:05 10:07:17 57° 285° (WNW) 10:11:24 437.485
QB50P2 26 Apr 10:08:37 10:11:42 21° 68° (ENE) 10:14:56 145.880/145.840
CANX-2 26 Apr 10:12:52 10:16:46 34° 289° (WNW) 10:20:35 2200.000
AAUSAT CUBESAT 2 26 Apr 10:18:41 10:22:48 54° 285° (WNW) 10:26:50 437.432
SO-50 26 Apr 10:21:17 10:23:40 14° 109° (ESE) 10:26:19 436.795
CUTE 1.7 + AOD 2 26 Apr 10:22:01 10:25:47 30° 289° (WNW) 10:29:27 437.475
BEESAT 3 26 Apr 10:23:43 10:26:14 16° 43° (NE) 10:28:51 437.485
AISAT 26 Apr 10:24:44 10:25:28 10° 88° (E) 10:26:30 437.250
